Location: Marcé
(47.5801°N, 0.3280°W)
Time: 18:20:32
(UTC+01:00)

Courier 1B - Pass Details

Date: 08 December 2021
Orbit: 962 x 1209 km, 28.3° (Epoch: 21 January)

Event Time Altitude Azimuth Distance (km) Brightness Sun altitude
Rises 18:31:12 0° 242° (WSW) 4,057 12.7 -13.0°
Reaches altitude 10° 18:35:25 10° 222° (SW) 3,055 11.1 -13.7°
Maximum altitude 18:39:29 15° 189° (S) 2,619 10.1 -14.4°
Drops below altitude 10° 18:43:27 10° 155° (SSE) 2,958 9.9 -15.0°
Sets 18:47:26 0° 134° (SE) 3,860 10.3 -15.6°
